Date,TemperatureHighF,TemperatureAvgF,TemperatureLowF,DewpointHighF,DewpointAvgF,DewpointLowF,HumidityHigh,HumidityAvg,HumidityLow,PressureMaxIn,PressureMinIn,WindSpeedMaxMPH,WindSpeedAvgMPH,GustSpeedMaxMPH,PrecipitationSumIn
2013-2-1,39,25,19,29,10,-100,80,58,43,30.50,30.04,16,-17,27,0.00
2013-2-2,40,28,18,31,19,9,95,71,37,30.51,30.18,3,0,6,0.00
2013-2-3,41,34,28,32,26,20,95,74,54,30.17,30.01,28,5,37,0.01
2013-2-4,50,36,26,26,22,17,76,59,38,30.26,30.11,9,0,19,0.01
2013-2-5,52,42,31,37,31,25,81,66,52,30.12,30.04,6,1,12,0.00
2013-2-6,54,45,35,36,27,20,86,53,28,30.33,30.12,13,2,17,0.00
2013-2-7,46,41,38,40,30,19,96,69,34,30.34,30.10,10,4,18,0.30
2013-2-8,47,40,33,44,36,27,99,86,59,30.24,30.03,18,4,33,0.30
2013-2-9,51,38,28,27,23,14,87,59,23,30.45,30.22,8,1,26,0.00
2013-2-10,48,42,39,45,27,20,98,58,41,30.50,30.25,8,1,10,0.29
2013-2-11,56,51,46,55,44,19,98,81,31,30.26,30.08,8,1,12,0.37
2013-2-12,50,44,39,37,26,18,92,51,28,30.21,30.01,9,2,18,0.12
2013-2-13,48,39,35,45,37,30,98,91,72,30.00,29.74,8,1,23,0.01
2013-2-14,49,39,30,31,27,25,83,66,40,30.17,30.01,10,2,16,0.01
2013-2-15,54,39,28,37,30,26,94,73,38,30.23,30.06,18,1,20,0.00
2013-2-16,35,30,22,27,21,11,89,70,48,30.13,29.96,17,4,37,0.00
2013-2-17,32,25,19,11,9,6,65,52,36,30.42,30.13,26,6,36,0.00
2013-2-18,49,35,20,25,19,10,75,54,38,30.51,30.32,3,0,9,0.00
2013-2-19,50,40,33,42,27,14,95,61,33,30.31,29.97,16,3,22,0.06
2013-2-20,44,35,29,16,4,-13,53,31,9,30.27,30.14,28,4,32,0.00
2013-2-21,58,39,24,35,15,5,87,43,14,30.35,30.21,5,1,7,0.23
2013-2-22,40,37,33,39,35,31,97,94,86,30.37,30.20,7,1,10,0.36
2013-2-23,53,45,38,50,44,37,99,95,72,30.21,29.93,3,0,11,0.24
2013-2-24,52,45,39,40,28,20,84,56,29,30.14,29.95,14,3,19,0.00
2013-2-25,43,37,32,28,25,22,85,61,52,30.24,30.10,13,3,18,0.00
2013-2-26,40,34,30,39,33,28,98,95,87,30.14,29.71,11,1,22,0.64
2013-2-27,53,42,34,39,33,29,98,73,42,29.91,29.77,10,2,19,0.00
2013-2-28,38,34,30,33,26,23,85,73,62,30.04,29.82,13,4,19,0.00